Content
SEND FEEDBACK

Daily
Averages
Monthly
Summary
Canada

YELLOWKNIFE, NORTHWEST TERRITORIES


Home > North America > Canada > Northwest Territories
Elevation: 676 feet     Latitude: 62 28N     Longitude: 114 27W

WEATHER
 
SELECT A DAY
Number of Records: 190,601;   Date Range: 1/1/95 - 7/23/14
 
SHARE

PRINT THIS DATA

[ ← Previous Day ]
WEATHER ALMANAC - JANUARY 18, 2013
[ Next Day → ]
[ °C ]   °F
Weather ElementAverageHighLow
Temperature-17.4 °F-14.8 °F (2:00 pm)-20.2 °F (1:00 am)
Dewpoint-23.9 °F-22 °F (2:00 pm)-27.4 °F (2:00 am)
Humidity70.1 %76 % (1:00 am)57 % (11:00 am)
Barometer30.28 in30.43 in (11:00 pm)30.14 in (2:00 am)
Wind Speed8.8 mph11.5 mph (5:00 am)
Weather ElementAverage
Visibility12.1 mi
Wind DirectionSSE (163 °)

Weather ElementTotal
Precipitation---
Heating Degree Days82.5 (Base 65)
Averaged from 27 records on January 18, 2013
WEATHER CONDITIONS BREAKOUT
WIND DIRECTION BREAKOUT
WEATHER BY HOUR - JANUARY 18, 2013
[ °C ]   °F
Local TimeTemperatureDewpointHumidityBarometerVisibilityWind DirectionWind SpeedGust SpeedPrecipitationEventsConditions
1:00 AM-20.2 °F-25.6 °F76 %30.15 in15.0 miENE (70°)9.2 mphOvercast
2:00 AM-20.2 °F-27.4 °F69 %30.14 in15.0 miENE (70°)9.2 mphScattered Clouds
3:00 AM-20.2 °F-25.6 °F76 %30.14 in15.0 miEast (80°)9.2 mphMostly Cloudy
4:00 AM-18.4 °F-23.8 °F76 %30.14 in15.0 miENE (60°)10.4 mphScattered Clouds
5:00 AM-18.0 °F-24.0 °F60 %30.16 in15.0 miENE (60°)10.4 mphMostly Cloudy
5:00 AM-18.4 °F-23.8 °F76 %30.16 in15.0 miENE (60°)11.5 mphMostly Cloudy
6:00 AM-16.6 °F-23.8 °F70 %30.16 in15.0 miNE (50°)10.4 mphOvercast
7:00 AM-16.6 °F-23.8 °F70 %30.18 in15.0 miNE (50°)10.4 mphOvercast
8:00 AM-16.6 °F-23.8 °F70 %30.20 in15.0 miNE (50°)10.4 mphOvercast
9:00 AM-16.6 °F-23.8 °F70 %30.22 in15.0 miNNE (30°)8.1 mphMostly Cloudy
10:00 AM-16.6 °F-23.8 °F70 %30.23 in15.0 miNE (40°)8.1 mphMostly Cloudy
11:00 AM-18.0 °F-25.0 °F57 %30.25 in15.0 miNE (50°)9.2 mphOvercast
11:00 AM-18.4 °F-25.6 °F70 %30.25 in15.0 miNE (40°)9.2 mphOvercast
12:00 PM-16.6 °F-23.8 °F70 %30.26 in15.0 miNE (40°)6.9 mphOvercast
1:00 PM-16.6 °F-23.8 °F70 %30.28 in15.0 miNNE (20°)6.9 mphSnowLight Snow
2:00 PM-14.8 °F-22.0 °F70 %30.29 in6.0 miNorth (10°)5.8 mphSnowLight Snow
3:00 PM-14.8 °F-22.0 °F70 %30.32 in12.0 miNorth (360°)6.9 mphMostly Cloudy
4:00 PM-14.8 °F-22.0 °F70 %30.33 in10.0 miNorth (350°)5.8 mphSnowLight Snow
5:00 PM-16.0 °F-22.0 °F62 %30.35 in10.0 miNNW (340°)4.6 mphSnowLight Snow
5:00 PM-16.6 °F-22.0 °F76 %30.35 in10.0 miNNW (330°)4.6 mphSnowLight Snow
6:00 PM-18.4 °F-23.8 °F76 %30.38 in12.0 miWNW (300°)6.9 mphSnowLight Snow
7:00 PM-18.4 °F-25.6 °F70 %30.40 in10.0 miNW (310°)9.2 mphSnowLight Snow
8:00 PM-18.4 °F-23.8 °F76 %30.41 in6.0 miNNW (340°)11.5 mphSnowLight Snow
9:00 PM-18.4 °F-23.8 °F76 %30.41 in6.0 miNNW (330°)10.4 mphSnowLight Snow
10:00 PM-16.6 °F-23.8 °F70 %30.42 in7.0 miNW (320°)11.5 mphSnowLight Snow
11:00 PM-17.0 °F-24.0 °F57 %30.43 in6.0 miNW (320°)9.2 mphSnowLight Snow
11:00 PM-16.6 °F-23.8 °F70 %30.43 in6.0 miNW (320°)10.4 mphSnowLight Snow
Hourly data recorded from CYZF, located miles away from Yellowknife, Northwest Territories







STORIES FROM OUR PARTNERS